SCP
0 0 0 0 0 0 0 0 0 0 0 0 0 0 0 0 0 0 0 0 0 0 0 0 0 0 0 0 0 0 0 0 0 0 0 0 0 0 0 0 0 0 0 0 -0
0 0 0 0 0 0 0 0 0 0 0 0 0 0 0 0 0 0 0 0 0 0 0 0 0 0 0 0 0 0 0 0 0 0 0 0 0 0 0 0 0 0 0 0 0
0 0 0 0 0 0 0 0 0 0 0 0 0 0 0 0 0 0 0 0 0 0 0 0 0 0 0 0 0 0 0 0 0 0 0 0 0 0 0 0 0 0 0 0 0
0 0 0 0 0 0 0 0 0 0 0 0 0 0 0 0 0 0 0 0 0 0 0 0 0 0 0 0 0 0 0 0 0 0 0 0 0 0 0 0 0 0 0 0 0
0 0 0 0 0 0 0 0 0 0 0 0 0 0 0 0 0 0 0 0 0 0 0 0 0 0 0 0 0 0 0 0 0 0 0 0 0 0 0 0 0 0 0 0 0
0 0 0 0 0 0 0 0 0 0 0 0 0 0 0 0 0 0 0 0 0 0 0 0 0 0 0 0 0 0 0 0 0 0 0 0 0 0 0 0 0 0 0 0 0
0 0 0 0 0 0 0 0 0 0 0 0 0 0 0 0 0 0 0 0 0 0 0 0 0 0 0 0 0 0 0 0 0 0 0 0 0 0 0 0 0 0 0 0 0
0 0 0 0 0 0 0 0 0 0 0 0 0 0 0 0 0 0 0 0 0 0 0 0 0 0 0 0 0 0 0 0 0 0 0 0 0 0 0 0 0 0 0 0 0
0 0 0 0 0 0 0 0 0 0 0 0 0 0 0 0 0 0 0 0 0 0 0 0 0 0 0 0 0 0 0 0 0 0 0 0 0 0 0 0 0 0 0 0 0
0 0 0 0 0 0 0 0 0 0 0 0 0 0 0 0 0 0 0 0 0 0 0 0 0 0 0 0 0 0 0 0 0 0 0 0 0 0 0 0 0 0 0 0 0
0 0 0 0 0 0 0 1 1 0 0 0 0 0 0 0 0 0 0 0 0 1 0 0 0 0 0 0 0 0 0 0 0 0 0 0 0 0 0 0 0 0 0 0 0
0 0 0 0 0 0 0 0 0 0 0 0 0 0 0 0 0 0 0 0 0 0 0 1 0 0 0 0 0 0 0 0 0 0 0 0 0 0 0 0 0 0 0 0 0
0 0 1 0 0 1 0 0 0 0 0 0 0 0 0 0 0 0 0 0 0 0 0 0 0 0 0 0 0 0 0 0 0 0 0 0 0 0 0 0 0 0 0 0 0
0 0 0 0 1 0 0 0 0 0 0 0 0 0 0 0 0 0 0 0 0 0 0 0 0 0 0 0 0 0 0 0 0 0 0 0 0 0 0 0 0 0 0 0 0
-0 0 0 0 0 0 0 0 0 0 0 0 0 0 0 0 0 0 0 0 0 0 0 0 0 0 0 0 0 0 0 0 0 0 0 0 0 -0 0 0 0 0 0 0 0
0 0 0 0 0 0 0 0 0 0 0 0 0 0 0 0 0 0 0 0 0 0 0 0 0 0 0 0 0 0 0 0 0 0 0 0 0 0 0 0 0 0 0 0 0
0 0 0 1 0 0 0 0 0 0 0 0 0 0 0 0 0 0 0 0 0 0 0 0 0 0 0 0 0 0 0 0 0 0 0 0 0 0 0 0 -0 -0 0 0 0
0 0 0 1 0 0 0 0 0 0 0 0 0 0 0 0 0 0 0 0 0 0 0 0 0 0 0 0 0 0 0 0 0 0 0 0 0 0 0 0 0 0 0 0 0
0 1 0 0 0 0 0 0 0 0 0 0 0 0 0 0 0 0 0 0 0 0 0 0 0 0 0 0 0 0 0 0 0 0 0 0 0 0 0 0 0 0 0 0 0
1 0 0 0 0 0 0 0 0 0 0 0 1 0 0 0 0 0 0 0 0 0 0 0 0 0 0 0 0 0 0 0 0 0 0 0 0 0 0 0 0 0 0 0 0
0 0 0 0 0 0 0 0 0 0 0 1 1 0 0 0 0 0 0 0 0 0 0 0 0 0 0 0 0 0 0 0 0 0 0 0 0 0 0 0 0 0 0 0 0
0 0 0 0 0 0 0 0 0 0 0 1 1 0 0 0 0 0 0 0 0 0 0 0 0 1 0 0 0 0 0 0 1 0 0 0 0 0 0 0 0 0 0 0 0
0 0 0 1 0 0 0 0 0 -0 0 0 1 0 0 0 0 0 0 0 0 0 0 0 0 0 0 0 0 0 0 0 0 0 0 0 0 0 0 0 0 0 0 0 0
0 0 0 0 0 0 0 0 0 0 0 0 0 0 0 0 0 0 0 0 0 0 0 0 0 0 0 0 0 0 0 0 0 0 0 0 -0 -0 -0 -0 0 0 -0 0 -0
0 0 0 0 0 0 0 0 0 0 0 0 0 0 0 0 0 0 0 0 0 0 0 0 0 0 0 0 0 0 0 0 0 0 0 0 0 -0 -0 -0 -0 -0 -0 -0 -0
0 1 0 0 0 0 0 0 0 0 0 0 0 0 0 0 0 0 0 0 0 0 0 0 0 0 0 0 0 0 0 0 0 0 0 0 0 -0 0 0 -0 -0 -0 -0 -0
0 0 0 0 0 0 0 0 0 0 0 0 0 0 0 0 0 0 0 0 0 0 0 0 0 0 0 0 0 0 0 0 0 0 0 0 0 0 -0 0 0 -0 -0 -0 -0
Wind_Speed_500mb
69 65 59 56 53 46 43 49 43 40 49 53 53 50 47 42 43 44 39 29 37 35 19 15 13 12 10 9 6 5 13 23 28 22 16 13 11 10 5 14 11 9 6 0 18
66 72 67 65 59 55 47 48 47 39 39 48 51 49 45 42 40 48 50 54 47 40 32 14 12 12 16 9 8 18 17 27 29 19 15 18 18 12 10 19 21 16 10 10 16
71 65 72 70 65 60 55 48 50 49 40 42 47 48 43 35 33 60 53 61 50 46 31 24 13 10 22 14 18 16 27 23 18 25 19 20 16 19 13 19 25 20 25 22 24
86 73 64 68 71 66 62 58 51 53 46 40 41 44 43 34 19 4 31 43 52 47 36 23 25 26 25 24 26 19 30 35 21 13 14 22 26 18 27 29 5 5 13 27 30
78 84 82 69 62 70 67 64 59 55 53 43 40 43 45 46 55 6 12 40 53 53 43 40 36 34 31 28 30 24 35 23 31 26 24 28 29 35 28 26 27 20 19 26 30
74 78 82 87 76 63 70 68 65 59 58 52 42 46 44 57 46 38 17 24 53 57 48 44 31 38 28 42 25 18 28 41 34 30 27 22 39 38 25 33 30 30 25 30 33
82 81 75 76 81 80 64 70 68 65 58 61 49 53 52 78 17 40 39 13 40 47 49 45 41 32 27 23 40 28 29 32 41 37 28 21 38 45 40 34 33 28 29 32 36
82 83 79 78 73 74 79 63 72 68 62 59 52 48 62 56 35 35 50 26 24 38 44 37 36 33 25 28 14 31 36 37 40 39 38 22 49 37 49 50 55 50 39 33 39
85 83 81 78 72 73 75 81 66 72 66 56 55 48 48 52 74 49 39 51 28 28 38 32 31 34 28 25 28 39 35 44 41 41 30 33 40 38 56 46 48 54 59 48 39
77 82 78 77 75 70 67 71 69 72 66 59 68 41 45 69 61 70 34 49 38 29 31 31 21 17 25 31 40 30 43 41 41 30 34 40 49 39 47 26 48 57 53 56 54
81 82 84 84 71 69 66 61 46 53 92 78 44 43 15 50 52 64 56 52 49 37 22 37 17 36 62 52 39 39 32 44 39 38 28 34 42 44 59 61 57 59 52 62 64
84 86 87 80 76 68 70 74 90 37 45 105 46 94 36 58 48 57 67 55 43 36 42 14 36 64 41 40 42 41 45 45 33 26 24 36 50 44 51 56 59 63 66 63 57
68 81 77 73 65 66 81 84 90 46 9 84 83 89 91 47 52 75 83 78 51 50 50 42 46 48 39 42 43 45 48 47 39 17 22 33 48 47 52 67 65 69 70 71 71
72 73 68 71 67 69 73 77 67 61 8 12 65 38 88 43 38 60 87 85 28 55 53 40 57 35 50 53 44 47 56 41 34 14 19 25 32 41 32 48 50 69 70 75 77
76 76 71 69 51 64 88 81 48 46 18 28 41 29 69 53 36 59 85 76 49 42 48 45 47 45 44 58 43 42 37 39 42 36 36 40 20 49 30 49 51 54 58 64 76
69 72 70 66 67 63 72 62 58 24 20 16 34 31 52 66 43 55 70 72 61 40 45 50 43 44 55 34 39 33 29 20 33 31 24 56 41 45 38 56 45 49 60 63 68
68 69 75 68 80 78 68 73 19 38 26 15 23 48 52 31 42 42 53 59 38 31 40 50 42 31 31 42 34 33 23 10 14 14 20 51 29 44 49 43 44 45 61 60 48
69 63 69 73 72 80 87 31 38 28 30 15 26 60 54 60 37 44 47 46 50 52 31 35 40 47 38 48 46 36 34 13 20 25 31 25 20 37 44 61 78 78 70 47 47
58 60 64 78 75 84 51 31 43 24 29 32 37 47 24 51 22 35 46 56 57 54 41 47 49 46 29 40 35 32 28 33 16 7 6 1 23 40 41 32 30 47 60 54 57
64 61 70 78 81 63 25 39 9 12 49 49 27 39 22 41 29 36 45 53 58 56 52 31 32 36 47 38 38 32 16 15 10 10 22 22 32 24 11 22 30 35 41 42 39
63 41 60 77 77 40 28 23 27 13 57 54 47 27 22 40 48 53 55 37 62 65 45 27 31 26 33 29 41 23 12 7 2 7 13 14 24 24 19 13 17 19 26 30 31
62 16 46 85 22 12 13 6 26 14 30 31 45 49 46 62 43 43 51 39 77 53 56 45 10 12 30 19 32 45 42 32 5 11 6 5 23 13 10 13 12 16 25 35 40
35 12 50 89 24 16 19 6 5 42 12 14 38 38 48 39 25 40 47 53 59 45 50 32 12 12 8 5 12 36 39 44 42 34 33 7 12 5 17 21 28 37 46 45 51
37 18 19 69 59 15 26 28 10 11 32 10 29 38 46 36 17 34 38 39 37 53 46 43 15 26 26 26 17 23 34 37 34 15 30 23 48 44 43 41 51 64 63 54 50
41 12 23 21 32 25 31 31 41 11 5 26 23 44 52 34 24 28 32 28 27 47 31 28 22 28 39 28 7 0 33 35 40 45 31 42 48 47 39 34 46 55 54 58 67
34 10 35 31 62 39 24 36 47 27 20 11 33 50 46 41 34 54 36 32 26 35 35 10 7 25 8 21 16 9 18 16 37 41 41 46 50 50 52 54 56 52 58 59 67
48 46 41 30 41 40 22 33 35 34 11 32 48 38 51 46 27 53 44 37 26 35 30 20 12 10 19 17 19 20 41 42 41 37 34 38 49 52 40 35 45 63 61 63 59
Wind_Direction_500mb
247 245 246 244 240 243 242 237 240 242 238 235 234 236 238 240 243 246 240 229 229 233 242 269 283 282 287 262 261 248 263 261 248 242 237 163 176 168 251 249 224 218 276 30 191
246 244 243 242 237 237 239 238 239 237 240 234 231 231 233 238 247 248 242 232 232 235 240 260 260 271 247 252 243 238 235 256 292 283 250 195 182 183 209 222 235 229 219 178 220
246 244 241 239 237 235 234 234 235 237 237 235 227 226 226 233 261 259 248 235 228 229 229 236 244 261 239 234 220 234 247 248 283 295 292 235 216 173 213 252 247 242 220 200 221
246 244 239 238 237 234 231 232 232 229 228 233 227 217 216 211 229 191 229 232 222 223 226 228 225 227 232 228 230 253 246 262 258 262 274 265 269 222 213 238 219 219 243 213 225
245 245 240 239 236 234 231 231 228 227 228 228 226 206 205 216 221 290 231 209 205 214 214 214 220 222 232 235 237 242 254 253 259 257 250 269 265 256 235 237 227 229 230 211 224
245 241 244 242 240 239 233 230 228 224 221 221 215 201 202 231 228 227 248 211 205 204 210 210 221 222 245 242 230 256 252 253 251 251 248 255 262 254 247 244 235 223 225 220 221
244 243 240 240 240 237 238 230 227 222 219 216 213 204 209 223 208 219 226 208 203 204 207 210 213 211 222 240 241 254 253 253 241 238 249 262 258 254 258 259 234 223 221 221 225
242 240 239 235 235 236 233 236 228 223 218 217 210 202 224 231 227 219 207 208 194 207 204 211 213 224 241 235 238 233 241 250 242 234 239 241 259 252 253 244 245 243 236 227 225
240 239 238 237 236 235 229 230 231 224 218 215 208 192 221 226 216 211 201 207 192 187 195 198 200 213 205 220 231 228 241 235 252 241 233 217 265 256 254 262 255 251 245 233 230
238 234 233 235 234 231 228 226 231 223 216 212 215 188 221 215 212 206 205 195 192 171 168 180 187 203 216 213 222 222 233 244 255 231 214 240 257 259 260 258 260 254 252 244 231
238 235 233 232 231 229 222 216 212 215 212 192 191 202 239 199 197 195 195 188 189 186 185 187 189 208 216 214 229 237 231 243 241 243 242 255 260 259 255 255 252 258 261 252 240
238 234 227 229 227 225 221 212 209 227 216 198 199 206 218 193 186 197 188 185 193 202 194 178 213 221 224 227 232 242 253 252 262 255 246 254 260 263 256 257 255 253 254 250 248
242 234 218 220 219 221 220 221 217 230 241 195 196 200 197 194 202 193 191 194 193 200 199 200 218 228 218 227 224 228 237 241 245 269 258 262 269 265 261 262 256 252 253 253 250
235 234 218 216 216 213 219 217 216 224 229 195 191 213 199 192 213 200 196 192 192 208 205 217 222 225 210 221 220 233 229 244 255 267 248 241 275 271 265 255 244 241 244 248 247
219 216 215 211 199 204 218 217 193 194 234 166 179 204 185 189 172 195 193 197 205 202 199 206 210 207 204 218 212 238 239 233 238 243 260 261 265 270 257 261 255 256 249 251 247
215 213 211 211 209 219 209 201 191 205 218 173 155 182 166 193 185 170 186 200 209 209 205 223 209 216 222 220 220 225 231 255 245 244 246 248 238 261 249 250 264 262 253 254 249
221 215 211 207 207 211 195 188 204 214 143 166 178 167 173 174 188 168 184 194 194 200 214 214 217 215 219 217 208 219 218 210 223 235 237 237 238 243 268 248 251 260 257 255 252
214 211 211 214 210 213 216 195 225 169 178 145 162 172 183 169 191 181 184 188 204 201 202 205 219 199 201 205 202 207 194 213 222 219 241 229 229 236 242 250 250 261 267 265 257
212 212 217 212 207 201 213 228 212 173 154 154 157 169 177 178 153 169 181 190 195 199 207 197 221 200 213 209 201 202 215 238 265 162 299 242 269 275 270 256 253 253 258 260 260
205 207 213 208 209 200 209 239 208 228 161 168 163 175 166 174 160 168 186 197 200 211 211 197 218 193 195 207 227 225 165 192 202 227 227 214 247 251 261 260 251 249 267 281 274
201 201 208 203 197 207 211 222 210 251 171 172 169 173 169 170 183 187 184 180 195 199 210 223 212 178 160 202 194 205 206 176 96 249 246 270 260 283 281 335 314 345 356 334 323
194 189 194 193 204 191 197 213 212 195 229 188 168 168 172 176 187 190 200 204 194 197 198 207 238 191 203 181 221 221 225 216 202 193 226 263 259 350 360 28 21 355 338 335 336
200 178 187 181 202 193 188 177 301 190 242 187 184 186 182 173 178 195 204 198 188 188 193 184 202 182 167 255 225 215 216 223 227 255 263 248 252 117 339 310 314 314 317 318 322
185 180 179 183 201 206 180 195 189 235 209 225 203 186 165 174 189 184 193 190 194 188 173 171 191 216 215 213 162 210 227 220 224 218 241 226 263 263 280 287 294 304 308 314 319
185 204 163 164 182 189 199 177 194 168 211 220 202 181 167 164 152 171 169 160 188 188 186 195 219 210 234 252 25 218 209 214 217 234 236 254 261 267 269 275 284 292 295 295 290
175 193 176 175 168 197 218 198 200 180 179 203 188 170 163 176 185 172 170 168 167 184 191 204 254 224 242 260 260 232 249 236 225 235 246 257 267 268 274 281 281 291 292 284 288
185 193 179 175 179 183 205 195 209 181 206 220 189 166 180 187 152 160 155 154 163 170 179 160 138 148 227 209 236 261 237 230 234 233 234 246 256 279 285 300 303 281 288 294 295
Wind_Speed_850mb
69 65 59 56 53 46 43 49 43 40 49 53 53 50 47 42 43 44 39 29 37 35 19 15 13 12 10 9 6 5 13 23 28 22 16 13 11 10 5 14 11 9 6 0 18
66 72 67 65 59 55 47 48 47 39 39 48 51 49 45 42 40 48 50 54 47 40 32 14 12 12 16 9 8 18 17 27 29 19 15 18 18 12 10 19 21 16 10 10 16
71 65 72 70 65 60 55 48 50 49 40 42 47 48 43 35 33 60 53 61 50 46 31 24 13 10 22 14 18 16 27 23 18 25 19 20 16 19 13 19 25 20 25 22 24
86 73 64 68 71 66 62 58 51 53 46 40 41 44 43 34 19 4 31 43 52 47 36 23 25 26 25 24 26 19 30 35 21 13 14 22 26 18 27 29 5 5 13 27 30
78 84 82 69 62 70 67 64 59 55 53 43 40 43 45 46 55 6 12 40 53 53 43 40 36 34 31 28 30 24 35 23 31 26 24 28 29 35 28 26 27 20 19 26 30
74 78 82 87 76 63 70 68 65 59 58 52 42 46 44 57 46 38 17 24 53 57 48 44 31 38 28 42 25 18 28 41 34 30 27 22 39 38 25 33 30 30 25 30 33
82 81 75 76 81 80 64 70 68 65 58 61 49 53 52 78 17 40 39 13 40 47 49 45 41 32 27 23 40 28 29 32 41 37 28 21 38 45 40 34 33 28 29 32 36
82 83 79 78 73 74 79 63 72 68 62 59 52 48 62 56 35 35 50 26 24 38 44 37 36 33 25 28 14 31 36 37 40 39 38 22 49 37 49 50 55 50 39 33 39
85 83 81 78 72 73 75 81 66 72 66 56 55 48 48 52 74 49 39 51 28 28 38 32 31 34 28 25 28 39 35 44 41 41 30 33 40 38 56 46 48 54 59 48 39
77 82 78 77 75 70 67 71 69 72 66 59 68 41 45 69 61 70 34 49 38 29 31 31 21 17 25 31 40 30 43 41 41 30 34 40 49 39 47 26 48 57 53 56 54
81 82 84 84 71 69 66 61 46 53 92 78 44 43 15 50 52 64 56 52 49 37 22 37 17 36 62 52 39 39 32 44 39 38 28 34 42 44 59 61 57 59 52 62 64
84 86 87 80 76 68 70 74 90 37 45 105 46 94 36 58 48 57 67 55 43 36 42 14 36 64 41 40 42 41 45 45 33 26 24 36 50 44 51 56 59 63 66 63 57
68 81 77 73 65 66 81 84 90 46 9 84 83 89 91 47 52 75 83 78 51 50 50 42 46 48 39 42 43 45 48 47 39 17 22 33 48 47 52 67 65 69 70 71 71
72 73 68 71 67 69 73 77 67 61 8 12 65 38 88 43 38 60 87 85 28 55 53 40 57 35 50 53 44 47 56 41 34 14 19 25 32 41 32 48 50 69 70 75 77
76 76 71 69 51 64 88 81 48 46 18 28 41 29 69 53 36 59 85 76 49 42 48 45 47 45 44 58 43 42 37 39 42 36 36 40 20 49 30 49 51 54 58 64 76
69 72 70 66 67 63 72 62 58 24 20 16 34 31 52 66 43 55 70 72 61 40 45 50 43 44 55 34 39 33 29 20 33 31 24 56 41 45 38 56 45 49 60 63 68
68 69 75 68 80 78 68 73 19 38 26 15 23 48 52 31 42 42 53 59 38 31 40 50 42 31 31 42 34 33 23 10 14 14 20 51 29 44 49 43 44 45 61 60 48
69 63 69 73 72 80 87 31 38 28 30 15 26 60 54 60 37 44 47 46 50 52 31 35 40 47 38 48 46 36 34 13 20 25 31 25 20 37 44 61 78 78 70 47 47
58 60 64 78 75 84 51 31 43 24 29 32 37 47 24 51 22 35 46 56 57 54 41 47 49 46 29 40 35 32 28 33 16 7 6 1 23 40 41 32 30 47 60 54 57
64 61 70 78 81 63 25 39 9 12 49 49 27 39 22 41 29 36 45 53 58 56 52 31 32 36 47 38 38 32 16 15 10 10 22 22 32 24 11 22 30 35 41 42 39
63 41 60 77 77 40 28 23 27 13 57 54 47 27 22 40 48 53 55 37 62 65 45 27 31 26 33 29 41 23 12 7 2 7 13 14 24 24 19 13 17 19 26 30 31
62 16 46 85 22 12 13 6 26 14 30 31 45 49 46 62 43 43 51 39 77 53 56 45 10 12 30 19 32 45 42 32 5 11 6 5 23 13 10 13 12 16 25 35 40
35 12 50 89 24 16 19 6 5 42 12 14 38 38 48 39 25 40 47 53 59 45 50 32 12 12 8 5 12 36 39 44 42 34 33 7 12 5 17 21 28 37 46 45 51
37 18 19 69 59 15 26 28 10 11 32 10 29 38 46 36 17 34 38 39 37 53 46 43 15 26 26 26 17 23 34 37 34 15 30 23 48 44 43 41 51 64 63 54 50
41 12 23 21 32 25 31 31 41 11 5 26 23 44 52 34 24 28 32 28 27 47 31 28 22 28 39 28 7 0 33 35 40 45 31 42 48 47 39 34 46 55 54 58 67
34 10 35 31 62 39 24 36 47 27 20 11 33 50 46 41 34 54 36 32 26 35 35 10 7 25 8 21 16 9 18 16 37 41 41 46 50 50 52 54 56 52 58 59 67
48 46 41 30 41 40 22 33 35 34 11 32 48 38 51 46 27 53 44 37 26 35 30 20 12 10 19 17 19 20 41 42 41 37 34 38 49 52 40 35 45 63 61 63 59
Wind_Direction_850mb
247 245 246 244 240 243 242 237 240 242 238 235 234 236 238 240 243 246 240 229 229 233 242 269 283 282 287 262 261 248 263 261 248 242 237 163 176 168 251 249 224 218 276 30 191
246 244 243 242 237 237 239 238 239 237 240 234 231 231 233 238 247 248 242 232 232 235 240 260 260 271 247 252 243 238 235 256 292 283 250 195 182 183 209 222 235 229 219 178 220
246 244 241 239 237 235 234 234 235 237 237 235 227 226 226 233 261 259 248 235 228 229 229 236 244 261 239 234 220 234 247 248 283 295 292 235 216 173 213 252 247 242 220 200 221
246 244 239 238 237 234 231 232 232 229 228 233 227 217 216 211 229 191 229 232 222 223 226 228 225 227 232 228 230 253 246 262 258 262 274 265 269 222 213 238 219 219 243 213 225
245 245 240 239 236 234 231 231 228 227 228 228 226 206 205 216 221 290 231 209 205 214 214 214 220 222 232 235 237 242 254 253 259 257 250 269 265 256 235 237 227 229 230 211 224
245 241 244 242 240 239 233 230 228 224 221 221 215 201 202 231 228 227 248 211 205 204 210 210 221 222 245 242 230 256 252 253 251 251 248 255 262 254 247 244 235 223 225 220 221
244 243 240 240 240 237 238 230 227 222 219 216 213 204 209 223 208 219 226 208 203 204 207 210 213 211 222 240 241 254 253 253 241 238 249 262 258 254 258 259 234 223 221 221 225
242 240 239 235 235 236 233 236 228 223 218 217 210 202 224 231 227 219 207 208 194 207 204 211 213 224 241 235 238 233 241 250 242 234 239 241 259 252 253 244 245 243 236 227 225
240 239 238 237 236 235 229 230 231 224 218 215 208 192 221 226 216 211 201 207 192 187 195 198 200 213 205 220 231 228 241 235 252 241 233 217 265 256 254 262 255 251 245 233 230
238 234 233 235 234 231 228 226 231 223 216 212 215 188 221 215 212 206 205 195 192 171 168 180 187 203 216 213 222 222 233 244 255 231 214 240 257 259 260 258 260 254 252 244 231
238 235 233 232 231 229 222 216 212 215 212 192 191 202 239 199 197 195 195 188 189 186 185 187 189 208 216 214 229 237 231 243 241 243 242 255 260 259 255 255 252 258 261 252 240
238 234 227 229 227 225 221 212 209 227 216 198 199 206 218 193 186 197 188 185 193 202 194 178 213 221 224 227 232 242 253 252 262 255 246 254 260 263 256 257 255 253 254 250 248
242 234 218 220 219 221 220 221 217 230 241 195 196 200 197 194 202 193 191 194 193 200 199 200 218 228 218 227 224 228 237 241 245 269 258 262 269 265 261 262 256 252 253 253 250
235 234 218 216 216 213 219 217 216 224 229 195 191 213 199 192 213 200 196 192 192 208 205 217 222 225 210 221 220 233 229 244 255 267 248 241 275 271 265 255 244 241 244 248 247
219 216 215 211 199 204 218 217 193 194 234 166 179 204 185 189 172 195 193 197 205 202 199 206 210 207 204 218 212 238 239 233 238 243 260 261 265 270 257 261 255 256 249 251 247
215 213 211 211 209 219 209 201 191 205 218 173 155 182 166 193 185 170 186 200 209 209 205 223 209 216 222 220 220 225 231 255 245 244 246 248 238 261 249 250 264 262 253 254 249
221 215 211 207 207 211 195 188 204 214 143 166 178 167 173 174 188 168 184 194 194 200 214 214 217 215 219 217 208 219 218 210 223 235 237 237 238 243 268 248 251 260 257 255 252
214 211 211 214 210 213 216 195 225 169 178 145 162 172 183 169 191 181 184 188 204 201 202 205 219 199 201 205 202 207 194 213 222 219 241 229 229 236 242 250 250 261 267 265 257
212 212 217 212 207 201 213 228 212 173 154 154 157 169 177 178 153 169 181 190 195 199 207 197 221 200 213 209 201 202 215 238 265 162 299 242 269 275 270 256 253 253 258 260 260
205 207 213 208 209 200 209 239 208 228 161 168 163 175 166 174 160 168 186 197 200 211 211 197 218 193 195 207 227 225 165 192 202 227 227 214 247 251 261 260 251 249 267 281 274
201 201 208 203 197 207 211 222 210 251 171 172 169 173 169 170 183 187 184 180 195 199 210 223 212 178 160 202 194 205 206 176 96 249 246 270 260 283 281 335 314 345 356 334 323
194 189 194 193 204 191 197 213 212 195 229 188 168 168 172 176 187 190 200 204 194 197 198 207 238 191 203 181 221 221 225 216 202 193 226 263 259 350 360 28 21 355 338 335 336
200 178 187 181 202 193 188 177 301 190 242 187 184 186 182 173 178 195 204 198 188 188 193 184 202 182 167 255 225 215 216 223 227 255 263 248 252 117 339 310 314 314 317 318 322
185 180 179 183 201 206 180 195 189 235 209 225 203 186 165 174 189 184 193 190 194 188 173 171 191 216 215 213 162 210 227 220 224 218 241 226 263 263 280 287 294 304 308 314 319
185 204 163 164 182 189 199 177 194 168 211 220 202 181 167 164 152 171 169 160 188 188 186 195 219 210 234 252 25 218 209 214 217 234 236 254 261 267 269 275 284 292 295 295 290
175 193 176 175 168 197 218 198 200 180 179 203 188 170 163 176 185 172 170 168 167 184 191 204 254 224 242 260 260 232 249 236 225 235 246 257 267 268 274 281 281 291 292 284 288
185 193 179 175 179 183 205 195 209 181 206 220 189 166 180 187 152 160 155 154 163 170 179 160 138 148 227 209 236 261 237 230 234 233 234 246 256 279 285 300 303 281 288 294 295